THOR ABLESTAR DEB *, 19961

Orbit data source: Space-Track

THOR ABLESTAR DEB *, 19961 is space debris in LEO originally from a launch on Thu, 29 Jun 1961 UTC launched from the Air Force Eastern Test Range (AFETR). Debris objects in space refer to the collection of defunct objects orbiting the Earth. Examples of debris include non-operational satellites, rocket bodies, and fragments generated from explosions, collisions, or faulty payload assembly.

Loading next visibility...
Identifier
19961, 1961-015MJ
Orbit
LEO
Country
Flag of USUS
Related business
Manufacturer
Unknown
Mission
Spacecraft
Bus & Motor
Unknown
Mass
Unknown
Launch date (UTC)
1961-06-29 (65 years ago)
Launch vehicle
Unknown
Launch site
Air Force Eastern Test Range (AFETR)
Object type
Payload
Rocket body
Debris
Shape & HBR
Unknown shape, 0.1 m
Radar Cross Section
Medium (>0.1 m² and <1 m²)

Expand to show TLE details & history
Last TLE update: 13 hours ago

TLE from 13 hours ago
0 THOR ABLESTAR DEB *
1 19961U 61015MJ  26255.70453642  .00000133  00000-0  19213-3 0  9996
2 19961  65.6443 347.6379 0164164 320.0650 191.5872 13.78701015952588
Epoch: 2026-09-12T16:54Z
TLE epoch observation values (Epoch: 2026-09-12T16:54:31.946Z)
Latitude
26.00731°
Longitude
-90.39832°
Altitude
1,088.961 km
Speed
7.251 km/s
True Right ascension
10h 19m 46s
True Declination
25° 52' 41"
Sunlit
Object was in daylight at epoch
Visualization orbit readout
Latitude
Unknown
Longitude
Unknown
Altitude
Unknown
Speed
Unknown
Apparent Right ascension
Unknown
Apparent Declination
Unknown
Sunlit
N/A
Visualization observer readout
Local Sidereal Time
22:23:19
Azimuth
Unknown
Elevation
Unknown
Doppler factor
Unknown
Orbital elements
Apogee altitude
1,087.615 km
Perigee altitude
846.452 km
Semi-major axis
7,345.171 km
Eccentricity
0.01642
Inclination
65.6443°
RAAN
347.6379°
Arg. of periapsis
320.065°
True anomaly
191.2168°
Mean anomaly
191.5872°
Eccentric anomaly
191.40127°
Mean motion
3.44779 °/min
Orbital period
104.41 mins
BSTAR
0.00019213
Loading maneuver chart data...
Computing Atmospheric mass density...

Documentation

Showing up to 5 results
|